Roswell, NM

10:29 AM MST on February 25, 2017 (GMT -0700)
Roswell Industrial

Weather History for KROW - September, 2013

Change the Weather History Date:

Wednesday, September 18, 2013

  Actual Average Record
Temperature  
Mean Temperature 75 °F 71 °F  
Max Temperature 86 °F 85 °F 99 °F (1997)
Min Temperature 64 °F 58 °F 36 °F (1968)
Degree Days  
Heating Degree Days 0 1  
Month to date heating degree days 0 1  
Since 1 July heating degree days 0 1  
Cooling Degree Days 10 7  
Month to date cooling degree days 207 167  
Year to date cooling degree days 2071 1691  
Growing Degree Days 25 (Base 50)    
Moisture  
Dew Point 63 °F    
Average Humidity 68    
Maximum Humidity 93    
Minimum Humidity 42    
Precipitation  
Precipitation 0.00 in 0.05 in 1.62 in (1946)
Month to date precipitation 3.64 0.98  
Year to date precipitation 8.24 9.91  
Sea Level Pressure  
Sea Level Pressure 29.83 in    
Wind  
Wind Speed 11 mph (SSE)    
Max Wind Speed 21 mph    
Max Gust Speed 25 mph    
Visibility 9 miles    
Events      
T = Trace of Precipitation, MM = Missing Value Source: NWS Daily Summary

Daily Weather History Graph

Daily Weather History Graph

Search for Another Location

Airport or City:

Trip Planner

Search our weather history database for the weather conditions in past years. The results will help you decide how hot, cold, wet, or windy it might be!

Date:

Astronomy

Sep. 18, 2013 Rise Set
Actual Time 6:43 AM MDT 6:59 PM MDT
Civil Twilight 6:18 AM MDT 7:24 PM MDT
Nautical Twilight 5:49 AM MDT 7:53 PM MDT
Astronomical Twilight 5:20 AM MDT 8:22 PM MDT
Moon 6:25 PM MDT (9/18) 5:49 AM MDT (9/18)
Length of Visible Light 13h 05m
Length of Day
12h 16m
Waxing Gibbous, 99% of the Moon is Illuminated
Sep 18
Waxing Gibbous
Sep 19
Full
Sep 26
Last Quarter
Oct 4
New
Oct 11
First Quarter

Hourly Weather History & Observations

Time (MDT) Temp. Heat Index Dew Point Humidity Pressure Visibility Wind Dir Wind Speed Gust Speed Precip Events Conditions
12:51 AM 69.1 °F - 63.0 °F 81% 29.89 in 10.0 mi South 12.7 mph - 0.00 in   Scattered Clouds
1:51 AM 66.9 °F - 62.1 °F 84% 29.88 in 10.0 mi South 9.2 mph - N/A   Clear
2:51 AM 66.0 °F - 63.0 °F 90% 29.87 in 10.0 mi South 9.2 mph - N/A   Clear
3:51 AM 66.0 °F - 63.0 °F 90% 29.84 in 10.0 mi South 10.4 mph - N/A   Clear
4:51 AM 64.9 °F - 63.0 °F 93% 29.85 in 10.0 mi SSE 4.6 mph - N/A   Clear
5:51 AM 64.0 °F - 62.1 °F 93% 29.86 in 10.0 mi South 5.8 mph - N/A   Clear
6:51 AM 64.0 °F - 62.1 °F 93% 29.87 in 9.0 mi SSE 5.8 mph - N/A   Clear
7:51 AM 66.0 °F - 64.0 °F 93% 29.88 in 9.0 mi SSE 9.2 mph - N/A   Clear
8:20 AM 66.2 °F - 64.4 °F 94% 30.05 in 10.0 mi South 13.8 mph - N/A   Partly Cloudy
8:51 AM 70.0 °F - 64.9 °F 84% 29.88 in 9.0 mi South 15.0 mph - N/A   Partly Cloudy
9:51 AM 73.0 °F - 64.9 °F 76% 29.89 in - SSE 12.7 mph - N/A   Clear
10:51 AM 75.9 °F - 64.9 °F 69% 29.87 in 10.0 mi SSE 12.7 mph 20.7 mph N/A   Partly Cloudy
11:51 AM 79.0 °F - 64.0 °F 60% 29.85 in 5.0 mi North - - N/A   Partly Cloudy
12:51 PM 81.0 °F 82.5 °F 64.0 °F 56% 29.83 in 5.0 mi SSE 12.7 mph - N/A   Clear
1:51 PM 82.9 °F 84.0 °F 63.0 °F 51% 29.79 in 10.0 mi SSE 13.8 mph 21.9 mph N/A   Partly Cloudy
2:51 PM 84.0 °F 84.5 °F 62.1 °F 47% 29.77 in 10.0 mi South 16.1 mph 23.0 mph N/A   Partly Cloudy
3:51 PM 86.0 °F 86.1 °F 61.0 °F 43% 29.74 in 10.0 mi SSE 17.3 mph 24.2 mph N/A   Clear
4:51 PM 84.9 °F 84.8 °F 60.1 °F 43% 29.73 in 10.0 mi SSE 15.0 mph - N/A   Clear
5:51 PM 82.9 °F 83.2 °F 60.1 °F 46% 29.73 in 10.0 mi SSE 15.0 mph - N/A   Clear
6:51 PM 80.1 °F 80.9 °F 60.1 °F 50% 29.74 in 10.0 mi SSE 10.4 mph - N/A   Clear
7:51 PM 78.1 °F - 61.0 °F 56% 29.76 in 10.0 mi SSE 5.8 mph - N/A   Clear
8:51 PM 75.9 °F - 63.0 °F 64% 29.78 in 10.0 mi South 5.8 mph - N/A   Mostly Cloudy
9:51 PM 75.9 °F - 62.1 °F 62% 29.79 in 10.0 mi SSE 11.5 mph - N/A   Mostly Cloudy
10:51 PM 73.0 °F - 63.0 °F 71% 29.79 in 10.0 mi SSE 12.7 mph - N/A   Clear
11:51 PM 72.0 °F - 63.0 °F 73% 29.78 in 10.0 mi South 10.4 mph - N/A   Clear